Wind_Speed
2 4 2 2 5 7 9 8 7 9 3 10 3 2 3 5 2 1 1 4 6 6 3 2 5 7 10 13 12 14 13 14 15 14 12 14 19 18 15 16 16 13 14 18 17 15 16 17 16 15 13 11 11 12 11 10 10 10 9 8 8 8 10 7 3 4 5 5 3 2 3 2 4 4 3 5 5 3 5 8 8 8 8 6 7 8
3 5 3 4 8 8 6 6 7 10 5 8 6 1 1 3 2 2 2 2 5 6 2 3 6 6 8 10 8 12 11 12 16 17 15 15 17 22 21 16 16 16 18 20 19 18 18 18 18 15 13 12 11 11 11 10 10 10 9 8 9 9 10 8 6 7 6 6 5 3 4 4 2 2 1 2 6 7 8 10 8 7 8 6 4 4
3 4 3 7 7 6 5 3 6 7 5 5 6 5 2 1 3 3 1 4 6 4 2 4 4 3 7 10 5 7 10 13 16 16 16 15 13 19 26 21 18 18 18 19 19 19 19 18 17 15 13 13 13 12 10 10 10 10 9 9 9 10 9 7 7 7 6 7 8 7 5 6 3 4 5 5 6 8 9 9 7 6 7 8 6 6
2 1 6 7 5 7 8 2 4 5 3 4 1 3 2 1 3 3 4 7 7 3 3 3 3 4 8 10 8 8 11 10 11 15 12 14 11 12 23 26 22 21 19 19 18 18 18 17 16 15 15 15 15 12 10 10 10 10 9 9 10 9 8 8 8 7 8 9 9 9 7 6 5 3 4 4 3 5 5 6 8 6 7 9 9 9
1 7 7 5 3 5 9 5 5 4 2 4 4 4 5 4 3 5 3 3 4 2 4 2 3 3 3 5 7 8 11 13 16 19 12 13 16 14 20 24 23 23 22 22 22 20 19 18 17 16 16 15 14 12 11 11 10 9 9 10 10 9 8 8 8 9 10 9 8 8 7 6 5 2 5 2 3 4 2 5 6 7 7 8 9 9
5 8 5 7 5 3 6 6 4 3 3 3 4 5 7 6 5 4 4 1 0 2 1 2 4 1 1 3 4 3 5 10 13 14 7 7 19 19 20 23 24 23 21 21 22 20 18 17 17 17 16 14 12 11 11 10 10 9 9 10 10 9 8 8 9 9 10 9 6 5 3 2 3 3 7 5 4 3 3 4 7 7 7 7 8 8
3 3 2 3 5 3 5 3 6 5 5 3 5 4 8 6 4 3 1 2 2 3 4 2 4 2 3 4 1 3 5 6 8 9 5 11 21 19 16 20 23 22 20 19 19 19 19 19 17 16 16 15 12 11 12 11 11 10 10 10 10 9 7 8 8 9 9 8 6 4 3 2 3 2 6 8 6 7 5 5 6 6 6 7 7 8
2 3 1 3 2 2 5 3 7 5 6 4 6 5 8 7 5 5 4 4 3 2 3 2 1 1 2 4 3 2 5 4 6 6 4 15 19 16 15 18 20 21 22 22 22 22 23 22 20 17 17 17 13 12 13 12 11 11 11 11 10 7 7 7 7 8 8 7 5 4 4 3 4 3 5 7 5 7 6 6 5 5 6 7 6 7
3 7 7 5 4 2 4 5 7 4 5 6 7 6 7 8 7 7 5 4 3 1 2 2 5 2 1 3 2 1 4 3 2 2 5 14 19 16 15 18 18 19 23 25 25 25 23 21 20 18 18 16 13 14 14 12 11 11 11 11 10 7 7 6 6 7 6 5 4 2 4 3 3 3 3 3 3 5 5 6 6 5 5 6 6 6
2 6 10 8 6 3 4 8 7 5 6 6 7 6 5 5 4 6 5 4 4 3 4 1 6 4 1 2 1 2 3 2 6 7 7 13 18 18 16 16 17 19 22 25 26 25 24 21 17 18 17 15 15 16 15 12 11 12 12 12 10 8 7 5 6 6 5 5 3 1 4 4 3 4 3 2 2 5 5 5 6 7 6 5 6 5
3 3 5 4 6 7 6 6 3 5 7 6 8 7 5 4 1 4 5 4 5 3 5 4 2 4 2 2 1 1 3 1 6 7 8 12 15 18 17 15 17 21 22 23 24 23 23 21 19 19 18 16 17 17 15 13 12 12 12 12 11 9 7 5 5 4 4 4 2 1 2 4 4 3 2 2 2 3 5 5 5 7 7 6 5 5
2 3 2 1 4 6 8 6 3 3 4 3 6 5 3 3 1 3 4 3 3 3 3 5 6 6 3 1 2 4 6 1 8 11 11 12 16 20 19 17 17 20 22 22 23 24 23 21 21 22 20 19 18 17 17 14 12 13 13 12 12 9 7 6 5 4 4 3 1 0 1 3 4 4 3 3 1 1 2 4 3 4 5 5 4 4
2 1 1 1 1 3 7 5 3 5 4 4 4 3 3 4 2 4 5 2 4 4 4 5 7 6 1 2 2 2 4 2 8 14 14 12 19 24 22 20 19 19 21 23 24 25 24 22 24 23 21 21 21 20 18 15 14 14 14 13 12 10 9 7 6 4 3 3 2 1 1 2 3 3 4 3 2 2 1 3 3 2 2 3 4 5
2 2 4 3 4 2 7 6 2 2 2 4 5 3 3 4 4 5 4 4 4 4 6 7 6 5 2 3 4 4 1 3 4 12 17 16 19 23 23 23 22 20 22 24 24 24 24 23 25 24 23 23 24 21 18 16 16 15 15 15 14 12 10 8 7 4 2 1 0 1 2 2 3 3 4 2 2 2 1 2 4 4 2 2 4 5
4 3 3 2 4 4 8 5 6 6 5 6 6 3 3 4 4 5 4 5 5 4 7 8 4 4 3 1 5 6 3 2 4 9 15 17 18 20 22 23 25 23 22 24 24 23 24 24 25 26 26 25 26 23 20 18 17 16 16 16 15 13 11 10 8 5 3 1 0 1 2 3 4 4 4 3 5 3 1 1 2 5 4 2 2 4
7 3 4 0 5 5 9 6 6 5 4 4 6 3 3 4 4 4 4 5 6 5 6 5 4 3 2 2 3 2 5 4 6 8 7 10 15 18 19 21 24 23 21 23 23 23 24 24 25 27 27 27 26 24 22 21 20 18 18 18 17 14 12 11 9 6 4 2 1 1 2 3 5 6 5 5 4 3 2 2 0 4 5 4 3 3
5 5 4 2 6 5 6 8 6 4 4 4 4 3 5 6 5 5 4 3 3 5 4 3 4 4 1 0 2 3 3 5 7 10 10 7 9 14 18 20 21 21 22 21 21 23 24 25 28 29 28 28 27 25 24 23 20 19 20 20 18 16 14 12 10 7 5 3 2 2 1 2 5 6 5 3 2 1 2 1 1 1 4 5 4 4
3 5 3 3 4 4 1 7 8 7 6 5 4 5 7 5 3 3 3 3 4 5 4 5 6 6 3 1 2 1 2 6 5 6 9 5 5 10 15 19 19 18 21 21 19 21 23 26 30 30 28 28 26 26 25 22 20 21 21 21 20 19 16 14 12 9 6 4 3 2 3 5 6 5 4 4 3 1 1 1 3 1 3 5 3 3
3 5 4 2 4 3 3 3 6 6 4 4 5 6 5 4 2 3 3 4 6 5 4 6 8 6 4 3 3 1 3 4 3 4 4 3 5 6 7 15 21 17 16 18 17 19 22 23 27 28 28 27 26 26 25 23 22 22 22 22 22 20 18 15 13 10 7 5 4 3 5 7 7 6 5 5 5 4 3 2 3 1 2 6 5 2
3 3 4 3 3 3 0 2 3 1 4 4 5 5 4 4 3 4 4 4 5 6 5 6 7 5 3 5 3 2 4 4 4 4 4 4 8 10 10 15 24 20 15 16 15 18 22 22 22 25 26 25 26 25 25 26 24 23 24 24 23 22 19 17 14 11 9 6 5 5 7 8 7 7 6 5 5 7 7 5 2 2 2 6 9 1
3 2 3 4 5 4 2 2 4 4 2 3 4 4 4 4 3 4 4 4 4 5 6 5 5 5 4 5 4 5 5 2 4 4 3 4 9 13 13 15 21 18 15 16 15 16 20 22 21 22 22 22 25 25 26 27 24 23 26 26 25 24 21 18 15 12 10 8 7 6 8 10 9 7 7 7 8 8 7 6 4 2 4 5 9 2
3 3 4 6 5 5 5 5 4 5 6 6 5 5 5 5 4 5 5 4 4 4 5 6 5 5 5 5 4 6 3 1 2 4 5 3 5 11 11 10 12 9 8 13 17 16 16 18 20 20 20 21 25 27 28 26 23 24 27 28 27 26 23 19 16 14 12 9 7 7 9 10 9 9 10 10 9 6 4 3 3 2 3 5 6 5
5 4 5 6 6 6 8 8 5 5 7 8 6 7 7 5 4 5 5 5 6 6 6 6 6 4 3 5 5 4 5 6 5 4 6 6 3 9 9 5 4 2 3 5 12 17 15 16 17 18 18 20 23 25 26 24 23 27 29 28 28 26 24 20 17 16 13 10 8 8 9 8 8 9 11 9 8 7 5 4 3 2 1 4 3 4
6 4 4 6 7 6 8 8 5 4 7 6 6 5 5 4 4 4 5 6 5 6 6 5 6 4 2 5 5 2 3 4 3 3 4 7 6 6 6 4 1 1 3 2 5 13 15 14 16 16 18 20 21 21 23 25 27 29 29 28 28 27 24 21 19 18 14 11 9 9 10 10 8 8 9 8 8 8 6 5 3 3 2 3 2 4
5 4 4 5 6 5 5 4 3 4 4 4 5 6 6 7 7 5 5 6 5 7 9 6 6 5 2 4 4 5 4 4 5 4 3 6 5 1 5 7 4 2 3 3 4 9 11 13 17 18 18 19 20 21 24 28 30 30 29 29 27 26 25 22 22 20 15 13 10 10 12 11 7 6 8 9 8 6 6 5 4 3 4 3 2 3
4 4 5 5 5 6 5 4 4 5 5 5 6 8 9 10 10 7 5 5 5 7 9 7 6 7 5 4 4 7 7 7 8 9 8 10 9 5 1 7 8 6 6 7 7 9 11 14 19 20 19 19 20 23 27 30 31 30 29 29 27 26 26 24 23 21 17 14 12 12 14 12 7 6 8 8 7 7 6 6 5 4 4 4 4 3
4 4 5 7 7 7 8 8 8 8 8 9 10 11 10 10 11 9 6 6 7 7 7 8 8 10 9 9 8 8 8 7 9 11 11 10 9 10 9 7 8 8 7 9 11 15 17 18 20 20 17 18 22 26 29 30 30 29 29 29 27 27 27 25 24 22 18 15 13 13 15 11 7 8 9 8 7 7 6 6 7 6 4 5 5 4
3 5 6 9 11 10 11 11 11 11 11 12 13 13 11 11 11 9 7 8 8 7 8 9 10 11 11 11 12 11 10 8 8 11 12 12 12 14 15 14 13 13 13 14 15 19 21 20 21 21 19 18 21 24 27 29 28 28 29 28 27 27 27 26 25 23 20 16 14 14 14 11 8 8 9 9 7 7 7 7 9 7 6 8 8 5
3 5 7 9 10 11 12 12 11 12 12 12 13 13 12 13 12 10 9 11 10 8 10 12 12 13 12 13 14 12 11 11 12 12 13 14 15 16 16 16 16 17 17 17 15 17 23 22 21 22 21 20 18 18 21 25 27 27 28 28 27 27 27 27 26 24 21 17 16 16 14 12 10 8 8 8 7 9 10 10 9 7 8 9 10 8
3 4 6 8 10 11 11 12 12 12 12 12 13 13 13 14 15 14 13 13 11 10 12 13 13 13 12 11 13 12 11 12 12 10 10 12 13 13 14 14 14 15 13 12 14 11 19 21 18 19 21 21 21 19 18 20 23 25 27 28 27 27 28 28 27 25 22 19 18 17 15 13 11 10 9 8 8 10 12 11 8 8 8 9 10 10
1 4 8 7 8 10 11 11 11 9 10 12 13 14 14 14 15 15 14 12 10 9 11 12 11 10 9 8 9 12 13 11 8 6 8 9 9 11 14 13 12 14 13 11 13 8 10 14 10 13 17 20 22 21 19 19 20 23 27 29 28 28 29 28 27 26 23 20 20 18 17 15 13 11 10 9 9 11 12 10 8 9 9 9 9 10
2 5 7 6 7 8 10 12 11 9 11 12 14 14 14 13 12 11 9 8 9 8 9 9 8 8 8 5 6 10 13 12 9 7 7 7 8 11 13 13 12 13 13 12 12 10 4 9 10 12 15 18 21 21 21 22 21 22 26 29 28 29 30 28 28 27 24 22 21 20 19 16 14 13 11 10 12 13 12 10 9 10 10 9 8 9
5 5 6 6 6 7 10 12 12 11 10 9 8 8 8 8 10 9 7 8 9 7 6 7 6 6 7 7 6 8 10 10 10 9 7 6 8 10 12 13 13 14 14 12 12 12 8 6 9 12 13 15 18 20 22 23 23 22 25 28 29 29 30 29 28 27 25 23 22 22 21 18 15 14 12 12 14 14 12 11 10 11 11 10 9 9
6 7 6 6 7 8 11 12 11 9 9 6 2 3 7 8 9 10 9 8 8 8 7 8 7 7 7 8 8 8 8 8 10 10 6 4 5 8 11 12 12 13 14 12 11 11 9 5 4 7 10 13 15 18 19 21 23 23 24 26 28 29 30 28 27 27 26 25 24 24 23 20 18 17 14 14 16 15 13 13 11 12 12 10 10 10
6 7 6 5 6 7 9 10 9 8 7 5 2 3 9 10 7 8 11 11 12 12 9 9 9 9 9 9 8 8 7 7 9 10 4 3 4 6 9 10 11 12 11 11 11 11 9 6 4 3 6 10 13 15 17 20 22 23 23 25 28 29 29 28 27 26 26 25 24 25 24 22 21 20 16 16 17 15 14 14 13 13 13 12 11 11
7 6 4 5 6 7 7 7 7 7 8 10 9 7 7 8 6 6 9 10 11 10 8 8 8 8 10 10 8 6 5 7 10 7 3 5 3 5 7 9 11 11 10 9 9 10 8 6 5 4 5 8 11 13 15 18 20 21 22 25 27 28 28 27 26 26 26 26 25 26 25 23 23 22 19 19 18 16 16 16 14 14 14 13 12 12
7 5 4 5 6 6 7 7 8 10 10 10 9 5 4 3 4 5 5 5 8 10 10 9 6 7 10 9 6 4 3 6 8 4 4 4 5 7 9 9 9 10 10 8 8 9 9 7 6 5 6 8 12 14 14 16 18 19 21 24 26 27 26 27 26 26 27 27 26 26 26 24 25 24 21 20 19 17 17 16 14 14 15 15 14 14
6 5 5 5 5 6 7 7 7 9 8 7 4 3 4 4 5 5 5 5 7 10 9 6 4 5 7 7 6 4 5 5 5 3 7 7 7 9 11 11 10 10 10 8 7 9 11 8 6 6 6 8 12 14 14 15 17 19 22 24 26 26 26 27 26 27 27 28 27 27 27 26 26 25 23 22 20 18 18 17 15 15 17 16 15 15
7 6 6 6 6 6 7 7 7 6 6 7 4 3 2 2 6 6 5 4 3 4 2 2 5 5 6 7 8 6 4 3 2 4 9 10 10 11 12 12 11 11 11 8 5 7 9 8 5 4 5 7 9 11 13 15 18 20 21 24 25 25 26 27 27 27 28 28 28 27 27 26 27 26 24 23 21 19 19 17 15 16 18 17 16 16
7 5 6 7 8 8 8 7 7 5 5 9 6 2 3 3 6 4 5 1 4 5 5 6 7 8 7 8 7 5 3 3 2 4 9 13 13 13 13 13 13 13 12 10 6 5 7 7 3 2 4 6 6 8 10 13 17 19 20 22 23 24 25 27 27 27 27 27 26 27 27 27 27 27 25 24 22 20 20 18 16 17 18 19 18 17
5 4 5 7 8 8 8 7 6 5 6 8 6 3 1 4 6 3 5 2 7 7 6 5 5 7 7 7 5 4 5 6 7 9 11 12 12 13 13 13 14 14 13 12 9 7 8 8 4 2 3 5 5 7 9 11 14 17 19 20 22 23 24 25 25 24 24 24 25 25 26 27 28 28 26 25 23 21 21 20 17 17 19 20 19 19
3 3 5 7 7 7 8 7 7 5 3 7 7 3 1 2 3 3 1 3 4 5 6 5 5 5 6 6 5 6 7 8 8 10 10 10 11 12 12 13 14 13 13 13 12 10 9 9 7 5 5 5 4 6 9 11 12 14 16 18 20 21 21 21 22 22 23 24 24 25 26 27 28 28 27 26 25 23 22 21 19 18 19 20 20 20
2 3 4 5 6 7 7 7 7 5 1 6 8 5 5 5 6 3 3 2 5 5 6 7 7 5 6 6 6 7 9 10 10 10 11 11 12 13 13 14 14 14 13 14 14 13 11 10 10 9 7 6 7 7 9 10 11 13 15 17 18 18 18 18 19 21 23 25 25 25 27 27 27 28 28 27 27 25 23 22 21 19 20 21 22 21
4 4 5 5 5 5 6 6 5 4 1 3 5 5 5 6 8 8 7 7 7 7 7 9 10 8 7 7 8 10 11 12 12 12 13 13 13 14 15 15 15 15 15 15 15 14 12 12 13 12 10 9 10 10 9 10 12 14 16 17 16 15 16 17 18 19 21 23 24 25 26 26 26 28 28 28 28 27 25 24 22 20 20 22 24 23
2 2 2 3 4 6 7 7 9 13 13 8 4 7 11 12 10 11 12 11 11 11 10 10 12 13 11 10 11 12 12 13 13 14 15 16 16 16 16 16 16 16 16 16 16 15 13 13 14 14 13 12 12 12 11 12 13 15 17 17 15 15 16 16 17 18 20 22 24 25 26 25 26 27 27 28 29 28 27 25 24 22 21 22 25 25
8 8 6 5 6 9 10 12 15 18 20 17 11 8 11 15 15 15 14 14 15 16 15 15 17 17 15 14 15 15 14 14 15 17 19 19 18 18 19 19 18 16 16 17 17 15 14 13 13 14 15 15 14 14 14 14 14 15 16 16 15 15 15 16 17 19 21 21 23 26 27 27 27 27 27 28 30 29 28 26 25 24 22 23 25 26
8 7 6 7 8 7 6 8 12 14 15 15 15 13 13 16 19 19 18 17 16 16 17 18 19 19 18 17 17 18 18 18 20 22 22 21 20 21 21 21 20 18 18 17 17 17 16 14 14 15 16 16 16 16 17 17 15 15 15 16 15 15 15 16 17 19 20 22 24 26 27 28 29 28 27 28 29 30 29 27 26 25 24 23 25 27
5 6 5 8 9 8 8 12 16 18 18 17 17 16 16 15 16 17 17 15 14 14 16 18 19 19 19 18 18 19 21 22 22 22 22 22 22 22 22 23 23 21 20 18 17 17 17 17 17 16 16 16 16 17 18 19 18 17 17 17 17 16 16 17 18 18 19 22 24 26 27 29 30 29 28 28 30 30 30 29 28 27 26 24 24 27
12 9 8 9 10 9 11 14 16 16 16 15 15 15 15 15 14 15 15 15 15 17 18 19 19 18 18 20 21 21 23 24 23 21 22 23 23 23 23 24 24 22 20 19 19 19 19 20 20 19 18 17 17 17 18 20 21 20 19 19 19 18 18 19 20 19 19 21 24 27 28 29 31 31 29 29 31 31 31 31 30 28 26 25 24 25
13 10 8 8 8 7 8 11 12 11 10 13 16 17 17 17 18 18 18 19 20 20 20 20 21 20 21 22 23 22 22 23 23 23 23 23 23 22 23 24 25 23 21 20 20 20 20 21 22 23 22 20 19 19 20 20 21 21 21 21 21 20 20 21 22 23 22 22 25 27 29 30 32 32 31 30 31 32 31 30 29 27 26 25 25 24
14 11 9 9 9 10 13 17 18 16 14 15 17 19 18 18 19 20 19 19 21 21 21 21 22 23 22 22 22 22 22 22 23 24 24 23 24 23 23 24 25 25 24 22 22 21 22 22 23 24 24 23 22 21 21 21 21 21 21 21 23 23 23 23 25 27 27 26 26 28 31 32 33 34 33 31 32 33 32 30 29 28 26 26 26 25
Wind_Direction
309 297 325 315 347 14 9 11 347 319 42 128 138 8 148 185 212 262 293 148 192 227 220 185 189 208 246 250 215 181 189 200 194 201 201 169 167 182 185 173 168 165 164 166 167 167 163 165 175 184 185 188 188 177 167 164 155 143 141 133 125 114 102 99 106 120 127 131 130 72 70 44 34 60 43 359 356 2 351 4 21 14 10 15 16 10
318 282 326 10 3 5 356 358 327 307 355 107 138 299 214 163 114 137 167 155 191 216 196 205 220 214 242 252 211 173 185 204 197 196 199 187 177 176 179 173 157 160 166 166 171 171 166 169 176 182 180 183 191 182 169 165 158 152 153 141 125 111 110 127 125 108 101 94 94 91 113 119 40 6 91 27 11 16 11 13 25 13 356 2 30 3
289 268 7 24 2 334 307 319 322 310 342 55 137 187 254 110 83 84 197 206 192 215 180 183 215 206 235 245 217 184 201 209 210 214 204 195 191 165 166 174 163 160 162 164 173 173 171 172 171 175 174 182 198 187 173 173 165 160 157 141 127 118 115 113 95 87 78 66 65 71 105 125 91 18 33 38 20 22 17 1 351 351 359 12 23 10
266 16 39 18 349 307 302 301 305 295 320 359 131 192 313 24 85 76 240 215 171 208 237 198 209 196 219 227 207 212 236 238 229 239 218 183 193 172 164 175 173 168 166 166 174 176 175 171 169 177 175 187 203 187 177 183 168 160 153 139 132 122 110 93 81 70 53 43 43 51 61 74 86 62 34 49 44 35 23 334 328 351 17 16 14 12
149 48 28 331 308 306 314 307 291 309 6 343 344 354 359 354 26 85 180 200 130 246 287 319 266 208 210 232 204 199 225 233 221 228 226 164 164 168 159 162 171 177 175 174 178 177 175 173 177 184 180 192 202 186 186 186 165 161 154 142 133 117 101 84 69 53 45 43 39 45 47 44 60 17 350 46 103 51 345 307 342 13 19 12 11 9
78 44 357 307 318 313 301 303 314 358 352 340 24 357 334 339 351 68 121 158 126 289 357 347 285 288 0 270 225 196 220 232 220 214 225 118 122 136 148 151 163 175 177 181 179 174 173 177 185 185 182 193 197 189 196 186 168 170 165 150 133 113 98 80 63 48 45 50 50 65 90 98 96 7 352 32 66 4 333 343 8 17 10 7 8 7
82 51 7 330 353 314 279 347 37 9 300 331 52 355 323 335 330 342 350 274 294 359 36 2 304 335 331 309 247 228 239 258 259 221 188 93 107 134 155 149 158 169 173 179 176 173 175 180 189 186 183 192 193 195 201 190 179 177 173 153 130 115 100 81 63 50 43 39 40 65 94 109 109 37 12 40 19 338 353 10 8 14 10 9 10 10
306 341 42 235 271 306 288 0 51 341 306 20 32 342 316 316 316 324 310 300 330 5 5 345 272 265 297 308 319 249 238 265 283 247 149 98 116 160 170 150 161 170 171 177 177 178 179 178 182 183 188 196 193 198 204 193 182 182 178 152 130 126 109 86 65 53 42 31 31 59 79 79 90 63 34 46 352 322 356 7 2 15 6 4 11 11
292 325 356 296 280 33 309 345 50 337 319 36 10 328 315 320 324 316 295 306 327 269 284 199 193 247 258 250 288 222 253 297 79 163 135 117 135 163 162 149 163 175 176 181 182 181 181 180 178 177 189 197 191 199 208 197 184 188 179 149 141 147 119 95 73 56 37 29 31 77 111 109 97 88 76 65 319 317 6 10 -0 11 7 2 7 7
71 330 346 316 309 19 330 339 22 326 321 17 338 292 276 291 305 313 315 325 318 304 318 238 188 257 306 188 234 168 238 246 136 156 157 143 142 143 147 151 165 179 181 183 184 181 179 178 177 180 188 191 191 202 210 200 189 193 179 153 157 158 129 106 82 61 34 32 28 58 130 139 124 112 125 105 355 348 14 15 1 6 9 4 1 358
89 309 311 292 323 349 322 321 1 312 321 335 299 277 264 272 296 323 310 305 319 324 310 303 276 302 319 178 226 257 268 180 123 134 138 145 141 134 145 161 167 174 179 183 184 181 178 178 181 190 193 192 196 208 212 204 197 196 181 164 167 160 138 122 97 71 40 43 24 338 136 144 132 118 114 80 32 8 9 7 11 15 12 5 1 348
180 226 214 146 350 323 285 268 185 219 283 284 288 295 303 307 323 313 298 271 304 310 284 306 330 324 313 195 200 223 245 206 115 132 145 157 158 147 153 167 170 171 174 181 184 180 180 183 188 193 193 190 196 210 214 206 202 198 184 174 173 162 151 137 115 87 49 50 30 330 157 155 145 140 122 92 0 341 26 4 6 28 13 353 342 332
284 283 41 145 106 317 289 280 196 200 219 241 282 316 316 318 325 317 322 301 295 319 333 347 345 326 330 53 357 232 210 95 116 151 157 152 154 155 160 168 172 172 173 180 185 185 184 187 191 193 193 193 196 206 211 205 204 201 191 184 177 168 164 151 127 105 62 36 23 16 232 173 141 141 126 109 303 295 52 12 358 12 0 343 331 328
264 296 308 236 132 48 298 302 318 300 319 291 294 329 319 314 316 308 311 306 314 342 331 331 333 316 356 56 334 311 102 85 112 146 146 142 148 156 163 167 170 174 177 181 185 189 192 193 193 193 195 197 197 203 208 206 206 203 198 192 180 175 174 158 138 131 113 38 53 232 249 184 139 124 120 141 249 262 79 19 347 323 301 338 340 326
263 266 293 283 54 18 294 326 8 331 317 304 305 320 311 318 321 316 323 319 325 340 323 319 318 328 356 232 251 284 322 105 106 117 141 153 155 161 165 163 167 172 178 182 183 187 193 195 195 196 197 198 199 204 209 208 205 202 204 198 183 180 179 163 151 150 155 160 164 239 254 184 156 133 137 199 232 233 148 125 354 336 312 306 332 330
290 316 93 9 341 323 289 332 9 309 284 320 331 331 339 350 338 319 318 322 329 323 313 312 295 310 334 227 230 320 0 56 88 78 100 138 148 159 164 159 161 167 174 183 184 186 192 195 197 199 197 199 204 208 210 206 200 200 207 201 187 184 181 168 161 161 169 184 169 198 253 200 166 156 181 214 225 237 237 202 285 351 324 311 336 345
307 328 82 225 258 241 287 330 340 305 315 332 323 343 351 339 327 321 312 330 340 299 292 313 299 300 275 180 32 13 17 49 69 76 81 98 128 147 159 161 162 166 171 180 185 188 192 194 199 203 203 207 212 209 208 206 198 200 208 203 191 187 182 172 169 174 177 172 163 178 216 183 155 165 196 200 171 243 307 274 224 338 317 318 349 347
354 296 277 276 256 185 97 328 296 283 307 311 315 353 343 305 289 323 305 316 325 298 312 328 310 315 325 38 67 353 43 55 43 73 101 118 124 139 159 167 167 168 172 178 184 189 191 193 201 209 212 216 217 209 209 211 201 201 209 205 195 190 185 177 175 179 177 163 156 163 163 156 157 174 192 170 156 165 46 312 260 267 316 309 336 349
29 292 278 326 358 59 102 287 269 237 227 269 308 327 318 295 316 333 309 314 316 303 310 315 309 318 335 34 89 68 44 55 14 17 53 81 99 105 133 158 166 170 171 179 188 187 189 197 206 213 216 216 215 212 214 211 199 199 207 205 198 194 187 182 181 178 171 157 139 141 155 159 168 179 185 178 165 170 174 222 276 299 340 313 316 352
7 310 304 310 324 342 338 292 313 208 180 226 281 294 314 338 333 316 312 310 308 305 304 312 316 318 357 42 50 58 56 29 7 18 4 17 70 73 74 131 162 176 172 173 190 191 191 199 205 210 217 216 213 214 212 205 197 199 205 201 198 195 189 186 186 177 165 149 136 145 149 153 172 178 177 181 174 188 193 182 227 204 102 319 307 330
336 296 308 298 281 279 283 321 343 341 319 301 299 298 318 327 310 304 300 286 290 302 304 309 309 311 1 27 14 55 78 14 335 5 347 3 65 78 75 109 148 175 180 171 183 193 191 194 200 209 217 215 215 213 206 202 199 200 202 198 196 195 191 190 187 176 164 148 142 147 147 162 186 184 174 183 186 200 202 182 211 193 108 310 293 101
10 312 311 310 304 300 302 317 328 308 304 318 318 307 312 318 319 310 292 295 310 306 303 306 300 308 335 356 37 58 42 319 22 19 352 348 79 93 88 102 133 171 196 178 182 189 188 187 193 206 211 209 211 207 201 201 197 195 196 195 195 194 193 193 186 176 169 153 144 144 154 176 189 182 184 188 181 187 203 195 208 166 117 286 284 106
18 308 297 296 287 286 291 300 307 308 327 335 316 299 308 315 314 298 291 312 321 309 306 303 289 291 341 4 44 54 338 346 29 0 326 326 29 94 101 100 112 180 218 180 178 181 186 187 186 196 203 208 212 207 203 200 194 194 195 193 193 193 194 194 184 178 174 160 146 144 160 182 180 184 199 195 179 178 188 204 188 130 158 275 278 111
355 291 287 292 285 290 292 287 291 334 357 337 292 291 313 314 314 308 305 314 310 301 303 293 284 289 37 23 7 355 309 317 319 305 315 329 1 79 117 127 75 243 198 135 154 164 173 188 191 193 198 208 214 210 206 201 194 196 195 192 192 190 191 191 182 182 180 164 152 146 160 182 187 196 203 191 185 179 176 194 169 132 222 250 223 139
333 308 318 306 300 304 289 268 285 334 343 308 302 331 337 319 314 312 306 307 297 293 295 286 283 294 41 52 340 308 304 297 299 317 325 314 324 60 162 158 149 232 201 190 198 172 171 188 198 201 200 205 210 207 204 200 195 196 195 192 192 189 189 188 181 185 184 169 159 150 161 186 199 198 195 190 190 182 170 169 156 185 226 202 162 149
317 315 320 303 301 309 300 301 323 326 320 307 307 314 311 305 305 304 302 292 282 295 299 289 283 293 318 354 324 309 322 327 317 316 307 296 301 313 227 168 178 209 188 180 206 206 198 196 200 205 202 202 208 206 203 199 194 194 194 192 193 190 188 186 183 187 186 175 166 155 166 189 197 187 196 197 189 183 165 135 141 225 236 162 154 162
298 285 286 276 276 284 291 298 301 299 293 290 289 290 289 289 290 291 284 278 289 304 297 285 293 306 315 322 320 317 321 321 314 310 306 303 311 317 304 265 242 239 210 197 208 210 209 206 208 212 207 207 213 209 201 196 192 191 191 191 191 190 189 187 184 186 187 181 172 162 171 189 191 181 193 202 195 177 153 150 181 216 213 161 145 129
285 282 280 279 277 282 291 294 290 286 283 285 290 293 294 295 294 291 281 282 296 299 287 291 300 301 303 307 309 310 310 305 296 294 295 300 303 299 294 288 280 272 262 252 231 209 204 209 213 215 211 213 219 211 200 193 191 191 190 188 189 189 190 189 185 186 190 186 178 171 175 184 186 184 192 206 201 158 148 197 216 207 190 166 137 127
303 287 288 290 289 294 301 299 291 286 285 287 289 290 292 291 285 281 275 274 278 275 276 286 290 288 292 300 300 299 301 297 291 288 289 293 292 287 286 285 279 272 269 269 258 222 205 205 210 210 210 209 209 211 206 195 191 192 190 188 189 190 191 191 186 187 192 189 183 180 179 181 185 189 193 202 192 163 170 208 220 195 184 172 151 153
353 296 311 309 297 295 294 290 286 287 290 289 285 284 285 285 283 282 276 269 271 281 286 285 287 289 291 297 302 307 308 295 288 292 297 296 298 298 298 296 294 294 287 287 296 258 202 196 206 212 213 210 201 204 214 205 195 195 192 189 190 191 192 192 188 189 194 191 187 186 181 181 187 190 193 196 187 176 183 204 207 184 177 175 171 169
79 318 335 325 297 292 290 284 281 295 312 306 294 285 281 281 282 279 279 279 279 287 292 290 292 294 293 307 328 331 328 317 307 314 308 304 316 322 315 309 307 308 298 293 311 303 186 182 212 222 219 217 204 199 206 207 205 203 194 190 191 191 193 194 190 191 194 191 189 188 185 185 189 189 189 190 185 179 186 200 197 182 179 181 185 182
224 283 306 298 285 288 292 291 289 302 314 302 289 282 278 281 284 276 271 278 278 276 279 283 289 294 296 320 339 321 315 316 315 311 305 316 337 333 320 313 308 307 302 291 296 300 222 189 211 224 223 218 207 203 203 202 208 213 202 193 191 193 195 195 192 191 191 190 190 189 188 190 190 190 187 182 181 182 190 199 190 183 189 189 189 190
274 280 282 282 286 286 289 295 299 300 294 283 284 289 285 291 305 301 271 258 275 289 283 278 283 288 293 306 312 300 300 309 314 318 334 4 0 339 327 326 325 323 320 307 294 295 288 234 215 223 225 215 207 211 211 203 204 212 209 199 193 195 197 195 193 192 189 190 191 189 191 193 190 191 189 177 179 187 193 197 192 191 196 193 193 195
269 278 284 283 282 285 289 294 295 287 274 275 319 329 299 294 307 312 297 280 288 287 278 285 290 286 289 294 297 299 302 309 309 308 321 17 20 347 333 336 343 340 334 328 319 315 318 312 263 233 228 224 219 221 220 210 203 203 206 204 198 197 199 196 192 192 190 190 191 190 193 192 187 192 191 177 183 193 193 192 195 195 196 196 197 197
267 266 274 280 274 277 287 288 282 268 267 285 298 264 275 279 287 303 298 293 291 283 280 291 291 289 293 284 280 292 300 302 295 290 303 35 30 353 340 344 348 345 341 343 340 341 348 346 326 278 233 228 224 221 219 215 210 203 201 204 202 198 198 195 192 193 191 190 191 191 193 191 187 192 192 182 187 195 189 191 200 199 197 198 199 199
266 269 271 279 273 268 272 270 267 273 289 300 298 289 285 283 286 291 280 274 282 286 285 282 281 298 306 291 275 281 291 298 299 304 45 58 12 336 349 356 350 345 354 1 343 332 328 313 304 295 254 230 222 219 214 212 212 206 199 202 203 199 196 195 194 193 192 193 193 192 194 191 189 193 192 186 192 195 188 195 204 202 198 198 200 203
252 263 258 261 265 269 273 267 267 280 289 290 292 313 358 344 326 320 297 278 283 285 282 283 298 321 312 294 277 282 320 318 302 315 44 29 342 342 349 348 341 342 354 -0 345 333 322 297 284 288 274 246 231 225 219 213 212 207 202 202 203 199 196 196 196 194 194 195 195 195 196 193 192 195 193 189 195 196 192 201 209 204 200 200 202 204
236 244 254 262 262 262 268 270 272 277 280 283 305 42 49 355 340 340 320 292 271 261 264 286 327 328 314 316 321 334 358 333 299 2 33 6 337 339 335 329 331 336 338 342 354 355 342 322 300 292 281 258 236 224 221 217 210 205 204 203 201 199 198 197 198 197 197 198 198 199 198 195 194 196 195 194 199 198 196 205 211 205 201 202 205 206
231 235 247 255 257 259 263 267 268 266 272 285 309 77 97 333 7 358 307 285 266 241 233 350 346 334 334 346 347 344 341 300 273 48 28 354 332 332 331 330 332 330 326 330 355 10 353 341 328 291 268 258 239 221 213 207 201 199 200 201 200 201 201 200 201 201 201 201 200 200 199 197 197 199 199 198 201 201 200 207 212 207 203 204 205 206
242 249 254 251 252 253 253 257 263 263 274 281 282 228 200 145 71 11 275 269 43 39 60 41 -0 348 347 342 335 320 299 305 325 350 345 336 332 330 327 326 325 323 320 321 334 359 345 329 316 252 242 241 228 218 214 207 201 199 199 200 202 203 206 207 206 205 205 204 202 201 201 199 199 201 201 202 203 203 204 209 214 209 204 204 206 207
225 222 238 247 254 256 253 257 263 260 271 287 300 318 317 117 118 245 264 47 42 26 32 24 348 343 338 326 321 308 308 326 327 320 325 329 326 324 323 319 317 317 316 315 317 323 320 308 292 238 246 249 223 217 225 220 211 208 206 206 208 209 211 213 211 210 210 206 203 205 204 202 202 203 202 203 204 204 205 211 216 213 207 204 205 207
232 222 233 236 246 258 255 256 265 263 299 337 332 324 42 107 193 233 0 42 9 2 1 337 324 330 317 307 310 309 307 313 311 307 310 312 311 315 317 315 313 313 312 309 305 300 296 289 279 269 267 262 234 223 226 224 223 223 218 216 217 216 216 216 214 213 213 210 208 209 206 203 204 205 203 202 204 205 205 210 215 216 211 204 204 206
261 253 256 238 236 255 258 257 268 268 342 1 330 274 199 210 248 290 23 335 306 336 337 315 314 314 297 293 297 297 297 300 301 299 298 301 307 309 309 308 309 308 306 304 301 297 289 279 275 274 268 249 231 227 224 220 228 234 230 225 224 220 217 216 217 217 218 218 217 213 207 204 206 206 203 202 205 206 207 210 213 217 214 204 202 205
248 243 267 265 248 259 257 245 260 280 311 21 352 309 275 261 273 297 306 289 291 308 301 296 302 301 295 294 291 291 295 295 295 297 296 298 303 306 305 304 302 301 301 300 300 299 291 278 270 266 266 260 245 232 223 222 229 235 235 232 227 220 215 214 215 216 218 220 219 212 205 204 208 208 203 203 207 206 206 209 212 216 215 205 200 205
284 270 280 280 269 273 274 274 295 309 311 309 299 288 291 289 281 281 286 290 300 303 295 293 297 298 299 299 294 293 294 292 290 292 293 296 299 299 299 299 297 297 297 296 295 294 288 280 272 261 257 258 252 239 232 229 227 230 235 233 226 220 215 211 210 212 215 218 217 212 206 204 208 208 205 206 208 206 206 210 211 214 215 206 200 205
278 273 256 250 270 276 275 279 286 291 296 297 293 285 286 287 283 281 284 292 298 299 296 295 294 292 287 283 282 283 285 287 290 291 290 291 291 290 291 292 291 289 290 291 291 289 284 280 274 263 254 250 248 246 247 243 235 234 237 234 224 218 215 210 208 211 213 213 212 210 208 206 207 207 206 208 209 207 209 212 212 214 216 209 203 205
279 292 280 267 273 276 271 274 277 279 288 296 299 295 287 285 287 288 288 287 289 294 299 303 302 299 292 284 281 281 282 284 289 291 290 288 285 284 286 288 287 286 285 285 284 283 280 274 268 263 256 249 244 246 248 246 242 240 239 235 228 222 219 216 212 211 212 211 209 209 209 206 205 206 207 209 209 207 208 210 212 214 216 213 208 206
302 349 326 277 270 273 276 279 281 283 284 283 285 288 289 291 295 296 295 294 295 296 297 296 296 295 292 289 287 286 287 286 285 286 288 286 283 282 283 283 283 282 279 278 278 277 274 269 265 263 257 248 244 245 246 244 245 244 240 236 232 227 225 223 219 215 214 211 209 209 208 207 207 207 207 208 210 208 206 207 210 215 221 224 221 214
294 299 286 276 277 276 274 279 286 290 291 291 297 304 308 313 316 310 303 298 293 288 287 288 290 292 292 291 289 286 286 285 282 282 283 283 280 280 280 281 282 280 276 274 275 273 268 264 262 262 260 252 245 246 246 244 245 244 238 233 232 230 229 228 227 225 220 213 209 209 208 208 210 209 207 209 212 211 211 212 214 218 224 230 231 226
281 281 279 283 284 277 280 295 305 304 296 298 305 308 309 312 311 305 301 298 296 296 298 297 294 293 291 290 289 285 283 282 281 280 280 281 280 278 278 280 282 282 278 275 274 272 269 265 262 261 260 257 252 250 248 246 245 244 239 233 230 229 228 228 230 230 225 215 209 209 208 208 210 210 211 212 213 213 213 215 220 225 226 229 231 230
261 268 277 280 278 282 293 300 301 299 296 299 302 298 296 301 303 299 298 298 300 303 304 299 293 291 290 289 288 287 285 284 284 284 283 282 281 280 278 278 279 281 281 279 276 273 271 268 265 261 258 257 255 252 249 246 246 246 243 237 231 230 231 231 231 230 226 217 212 211 209 210 211 212 213 214 215 214 212 211 216 221 223 227 231 230
Height
1477 1481 1484 1484 1481 1480 1480 1479 1481 1478 1477 1487 1492 1491 1494 1497 1497 1492 1491 1490 1491 1496 1499 1499 1503 1505 1506 1503 1500 1504 1508 1509 1511 1511 1512 1513 1517 1520 1522 1525 1526 1527 1527 1527 1527 1528 1528 1530 1532 1535 1537 1537 1538 1538 1538 1538 1538 1538 1538 1538 1538 1538 1537 1538 1538 1538 1538 1538 1539 1539 1539 1540 1539 1540 1539 1538 1538 1537 1536 1536 1535 1535 1535 1534 1534 1534
1480 1486 1484 1480 1479 1480 1481 1480 1481 1478 1474 1483 1492 1492 1489 1490 1492 1490 1490 1490 1489 1495 1498 1496 1498 1500 1501 1499 1495 1499 1505 1508 1510 1509 1508 1509 1513 1517 1520 1523 1525 1525 1525 1525 1526 1527 1529 1531 1532 1534 1537 1538 1538 1538 1538 1538 1538 1538 1538 1538 1538 1537 1537 1538 1538 1538 1538 1537 1537 1537 1538 1539 1538 1539 1539 1538 1537 1537 1536 1536 1536 1535 1535 1534 1534 1534
1486 1487 1482 1479 1480 1481 1480 1480 1480 1479 1477 1481 1490 1495 1493 1486 1486 1489 1489 1488 1489 1492 1494 1494 1495 1498 1498 1496 1494 1496 1500 1503 1505 1504 1504 1505 1507 1513 1518 1520 1522 1523 1524 1525 1526 1527 1529 1530 1532 1534 1536 1538 1538 1538 1538 1538 1538 1538 1538 1537 1537 1537 1537 1537 1537 1537 1537 1536 1536 1536 1537 1537 1538 1537 1538 1538 1537 1537 1537 1536 1536 1535 1534 1534 1534 1533
1490 1485 1480 1480 1481 1482 1480 1479 1479 1478 1478 1481 1484 1490 1491 1483 1485 1494 1493 1488 1486 1488 1489 1490 1493 1495 1495 1493 1493 1496 1497 1498 1501 1501 1500 1502 1505 1513 1519 1519 1520 1522 1523 1525 1526 1527 1529 1530 1532 1534 1536 1538 1538 1538 1538 1538 1538 1537 1537 1537 1537 1537 1537 1537 1536 1536 1536 1535 1535 1535 1536 1536 1537 1537 1537 1537 1538 1538 1538 1536 1535 1535 1534 1534 1533 1533
1485 1481 1479 1481 1481 1482 1482 1480 1477 1478 1481 1482 1480 1483 1486 1481 1482 1489 1489 1485 1484 1486 1485 1487 1497 1497 1491 1492 1492 1492 1495 1497 1500 1500 1498 1500 1505 1513 1519 1518 1519 1521 1521 1522 1524 1526 1529 1530 1532 1534 1536 1537 1537 1537 1538 1537 1537 1537 1537 1537 1537 1536 1536 1536 1535 1535 1534 1534 1534 1534 1535 1536 1537 1537 1536 1537 1537 1537 1537 1536 1535 1535 1534 1534 1533 1533
1481 1481 1481 1482 1481 1481 1482 1479 1475 1478 1484 1484 1482 1483 1483 1481 1480 1481 1483 1485 1490 1495 1487 1488 1508 1508 1492 1490 1491 1489 1492 1493 1494 1495 1494 1499 1507 1512 1514 1516 1518 1519 1521 1521 1522 1525 1528 1531 1534 1535 1536 1537 1537 1537 1537 1537 1537 1537 1537 1537 1536 1536 1535 1535 1535 1534 1534 1534 1534 1534 1535 1536 1536 1536 1536 1536 1536 1536 1536 1535 1535 1535 1534 1534 1534 1533
1480 1480 1480 1482 1482 1482 1481 1478 1477 1480 1484 1486 1483 1481 1481 1480 1480 1480 1482 1486 1493 1499 1489 1486 1507 1514 1500 1491 1489 1489 1491 1491 1492 1492 1492 1499 1509 1511 1510 1512 1515 1517 1519 1521 1521 1522 1525 1530 1533 1534 1535 1536 1537 1537 1536 1536 1536 1536 1537 1536 1536 1535 1535 1534 1534 1534 1534 1534 1534 1534 1535 1535 1536 1536 1535 1536 1536 1536 1535 1535 1535 1535 1534 1534 1534 1534
1480 1480 1481 1481 1482 1482 1482 1480 1480 1480 1484 1487 1482 1481 1482 1480 1480 1481 1481 1485 1488 1491 1491 1489 1497 1512 1512 1498 1487 1487 1490 1491 1495 1493 1492 1499 1508 1508 1507 1510 1513 1515 1517 1519 1521 1521 1522 1526 1528 1530 1533 1534 1536 1536 1536 1536 1536 1536 1536 1535 1535 1535 1534 1534 1534 1534 1534 1534 1534 1534 1534 1535 1535 1536 1536 1536 1536 1535 1535 1535 1535 1535 1535 1534 1534 1534
1480 1482 1483 1482 1481 1483 1483 1479 1478 1481 1485 1486 1481 1481 1482 1480 1481 1480 1480 1484 1484 1490 1501 1496 1493 1509 1515 1498 1486 1488 1490 1493 1497 1494 1492 1498 1505 1506 1507 1509 1511 1513 1515 1517 1519 1520 1522 1523 1524 1527 1530 1532 1534 1535 1534 1535 1535 1535 1535 1535 1534 1534 1534 1534 1534 1534 1534 1534 1534 1534 1534 1535 1535 1536 1536 1537 1536 1536 1536 1535 1535 1535 1535 1534 1534 1534
1481 1484 1484 1483 1483 1483 1484 1480 1478 1483 1484 1483 1481 1481 1480 1479 1479 1480 1482 1483 1484 1495 1505 1496 1489 1502 1509 1495 1486 1490 1491 1492 1495 1493 1491 1495 1500 1503 1505 1507 1509 1512 1514 1516 1517 1519 1520 1521 1522 1525 1528 1530 1532 1532 1533 1533 1534 1535 1534 1534 1534 1534 1534 1534 1534 1535 1535 1534 1534 1534 1534 1535 1535 1536 1536 1536 1536 1536 1536 1536 1535 1535 1535 1534 1534 1533
1482 1484 1484 1484 1485 1484 1484 1482 1481 1484 1483 1481 1482 1481 1479 1479 1479 1482 1483 1482 1493 1504 1502 1491 1483 1491 1504 1500 1489 1488 1487 1486 1490 1493 1493 1494 1498 1502 1503 1504 1507 1510 1512 1514 1516 1517 1519 1520 1522 1525 1527 1529 1530 1530 1531 1532 1533 1534 1533 1533 1534 1534 1534 1534 1534 1535 1535 1534 1534 1534 1534 1534 1535 1536 1536 1536 1537 1537 1537 1536 1536 1536 1535 1535 1534 1533
1482 1484 1484 1483 1485 1485 1484 1482 1481 1481 1481 1482 1483 1481 1486 1488 1486 1489 1487 1487 1506 1511 1495 1483 1478 1484 1501 1502 1488 1484 1483 1481 1485 1490 1491 1493 1496 1499 1501 1503 1505 1508 1510 1512 1514 1516 1518 1520 1521 1523 1526 1528 1529 1529 1530 1531 1532 1533 1533 1533 1533 1533 1534 1534 1534 1534 1534 1534 1534 1534 1534 1534 1535 1535 1536 1537 1536 1536 1536 1536 1536 1536 1535 1535 1534 1533
1485 1483 1482 1483 1484 1484 1485 1484 1481 1479 1478 1482 1482 1483 1496 1503 1504 1510 1506 1501 1509 1504 1486 1479 1481 1487 1494 1490 1482 1480 1479 1478 1481 1484 1486 1489 1493 1497 1499 1501 1503 1506 1508 1510 1512 1513 1515 1518 1519 1522 1524 1526 1527 1527 1528 1529 1531 1532 1533 1533 1533 1533 1533 1534 1534 1534 1534 1533 1533 1534 1534 1534 1534 1535 1536 1536 1536 1536 1536 1536 1535 1535 1535 1535 1534 1533
1494 1488 1481 1481 1483 1484 1486 1485 1486 1485 1481 1483 1483 1487 1501 1510 1518 1525 1518 1510 1510 1502 1486 1477 1483 1492 1489 1483 1480 1477 1475 1475 1476 1480 1484 1487 1490 1494 1497 1498 1501 1504 1507 1509 1510 1512 1513 1515 1517 1520 1522 1524 1525 1526 1526 1527 1529 1531 1532 1532 1532 1533 1533 1533 1533 1533 1533 1533 1533 1533 1533 1534 1534 1535 1535 1536 1536 1535 1536 1536 1535 1535 1535 1534 1534 1533
1503 1500 1487 1483 1486 1487 1485 1483 1486 1487 1485 1484 1478 1482 1494 1500 1512 1520 1516 1514 1513 1505 1492 1483 1488 1495 1491 1485 1478 1472 1471 1471 1474 1478 1483 1486 1489 1492 1494 1497 1500 1502 1505 1508 1509 1510 1512 1513 1516 1518 1520 1522 1522 1523 1524 1524 1526 1529 1531 1532 1532 1532 1532 1533 1533 1533 1533 1533 1533 1533 1533 1533 1534 1535 1535 1535 1535 1535 1535 1536 1535 1535 1534 1534 1534 1533
1500 1497 1485 1483 1486 1487 1486 1482 1482 1487 1489 1485 1477 1483 1492 1491 1496 1505 1506 1505 1505 1508 1502 1493 1490 1485 1479 1476 1470 1469 1471 1470 1474 1478 1480 1484 1488 1490 1493 1496 1499 1502 1504 1506 1508 1509 1511 1513 1515 1516 1518 1519 1519 1521 1522 1522 1523 1526 1529 1531 1531 1532 1532 1532 1532 1532 1532 1532 1532 1532 1533 1533 1533 1534 1535 1534 1535 1535 1535 1535 1535 1535 1534 1534 1533 1533
1501 1497 1483 1484 1486 1484 1486 1484 1481 1488 1492 1488 1486 1490 1490 1484 1487 1500 1505 1498 1501 1514 1507 1491 1489 1480 1473 1476 1472 1471 1474 1472 1475 1479 1480 1485 1487 1489 1493 1495 1498 1501 1502 1504 1506 1508 1510 1511 1513 1514 1516 1517 1517 1519 1521 1521 1521 1523 1528 1531 1531 1531 1531 1531 1531 1532 1532 1532 1532 1532 1532 1533 1533 1534 1534 1534 1534 1535 1535 1535 1535 1535 1535 1534 1534 1533
1501 1502 1486 1482 1487 1483 1484 1487 1484 1484 1488 1491 1493 1491 1485 1484 1486 1495 1508 1508 1509 1518 1506 1491 1492 1486 1483 1487 1479 1474 1478 1478 1478 1479 1481 1484 1485 1488 1491 1493 1497 1499 1501 1504 1505 1507 1509 1510 1511 1512 1514 1515 1516 1519 1521 1521 1520 1521 1527 1531 1531 1531 1530 1530 1531 1531 1531 1531 1531 1532 1532 1532 1533 1534 1534 1534 1534 1535 1535 1535 1535 1535 1535 1534 1534 1533
1497 1505 1492 1480 1486 1485 1481 1487 1488 1483 1484 1489 1490 1486 1487 1497 1500 1498 1509 1516 1518 1521 1512 1497 1492 1486 1484 1486 1481 1479 1482 1482 1480 1480 1481 1483 1485 1488 1490 1493 1496 1498 1501 1503 1504 1506 1508 1509 1510 1511 1512 1514 1516 1518 1520 1521 1520 1520 1525 1530 1531 1531 1530 1530 1530 1530 1530 1530 1530 1531 1531 1532 1533 1533 1533 1534 1534 1535 1535 1535 1534 1535 1535 1534 1534 1533
1494 1507 1504 1486 1483 1486 1483 1488 1493 1489 1485 1485 1486 1485 1485 1494 1502 1501 1503 1509 1515 1520 1515 1506 1500 1490 1480 1478 1479 1482 1483 1483 1483 1483 1482 1483 1486 1489 1492 1494 1497 1499 1500 1501 1503 1505 1506 1508 1509 1509 1511 1513 1514 1517 1519 1520 1519 1518 1524 1529 1531 1531 1530 1529 1529 1529 1529 1529 1529 1530 1530 1532 1532 1532 1533 1533 1534 1534 1534 1534 1534 1534 1534 1534 1533 1533
1494 1505 1511 1495 1483 1487 1491 1492 1494 1493 1491 1490 1492 1493 1492 1491 1494 1498 1499 1497 1504 1515 1516 1515 1513 1496 1477 1473 1478 1481 1483 1484 1484 1484 1484 1484 1487 1491 1493 1495 1497 1499 1500 1500 1501 1503 1504 1507 1508 1508 1510 1511 1512 1515 1517 1518 1517 1518 1523 1528 1529 1529 1529 1529 1528 1528 1528 1528 1528 1529 1530 1531 1532 1532 1532 1533 1533 1533 1533 1533 1533 1533 1534 1534 1533 1533
1500 1505 1512 1506 1497 1496 1495 1489 1487 1490 1490 1492 1495 1494 1495 1495 1498 1509 1513 1499 1495 1506 1509 1513 1517 1502 1480 1474 1477 1480 1483 1483 1482 1485 1485 1485 1487 1491 1493 1496 1498 1499 1500 1499 1499 1502 1504 1506 1507 1508 1509 1511 1511 1513 1514 1515 1515 1517 1522 1525 1527 1528 1527 1527 1527 1527 1527 1527 1527 1528 1529 1530 1530 1531 1531 1531 1532 1532 1532 1532 1532 1533 1533 1533 1533 1533
1504 1507 1512 1511 1503 1498 1494 1487 1487 1489 1488 1491 1496 1494 1493 1496 1501 1514 1521 1509 1502 1505 1502 1505 1513 1502 1482 1476 1479 1482 1483 1482 1484 1487 1486 1486 1487 1490 1493 1496 1497 1497 1498 1499 1499 1501 1503 1505 1507 1508 1508 1510 1511 1511 1512 1512 1514 1518 1521 1523 1525 1525 1526 1526 1526 1526 1525 1525 1526 1527 1527 1528 1529 1530 1530 1530 1531 1531 1531 1532 1531 1532 1532 1532 1532 1532
1507 1508 1513 1512 1502 1493 1491 1487 1486 1488 1492 1498 1500 1495 1496 1499 1500 1506 1510 1508 1510 1512 1506 1511 1516 1500 1482 1479 1482 1483 1484 1484 1485 1487 1487 1488 1488 1490 1493 1494 1495 1496 1497 1498 1499 1501 1503 1505 1507 1508 1508 1509 1509 1510 1511 1512 1514 1517 1520 1522 1523 1523 1524 1524 1524 1524 1524 1524 1525 1525 1526 1527 1528 1528 1529 1529 1529 1530 1530 1531 1531 1531 1532 1531 1532 1532
1513 1511 1514 1519 1517 1511 1505 1501 1499 1497 1499 1503 1501 1497 1498 1499 1500 1503 1504 1507 1515 1513 1508 1516 1518 1499 1483 1483 1484 1483 1484 1484 1485 1486 1488 1489 1489 1490 1492 1493 1494 1496 1496 1497 1499 1500 1502 1504 1505 1507 1507 1507 1508 1509 1511 1512 1514 1516 1518 1520 1521 1522 1522 1522 1522 1522 1522 1522 1523 1524 1525 1526 1526 1527 1527 1528 1528 1528 1529 1530 1530 1531 1531 1531 1531 1532
1515 1514 1515 1523 1530 1530 1524 1519 1515 1510 1506 1505 1502 1501 1501 1500 1501 1505 1507 1513 1519 1512 1507 1513 1512 1497 1486 1485 1486 1486 1486 1486 1486 1487 1488 1489 1489 1489 1491 1492 1493 1493 1494 1496 1497 1499 1500 1501 1503 1504 1505 1506 1507 1508 1509 1511 1512 1514 1516 1518 1519 1520 1520 1520 1521 1520 1520 1521 1521 1522 1524 1524 1525 1526 1526 1527 1527 1528 1528 1529 1530 1530 1530 1530 1531 1531
1514 1513 1513 1517 1521 1521 1519 1514 1509 1508 1509 1508 1504 1500 1500 1500 1500 1502 1509 1514 1513 1510 1510 1508 1503 1500 1494 1490 1489 1489 1489 1489 1489 1488 1488 1489 1489 1489 1490 1491 1491 1491 1492 1493 1493 1495 1496 1497 1499 1501 1502 1504 1506 1507 1507 1509 1510 1511 1514 1516 1517 1518 1518 1519 1519 1519 1519 1519 1520 1521 1522 1523 1524 1525 1526 1526 1527 1527 1528 1529 1529 1529 1529 1530 1531 1532
1515 1516 1513 1512 1511 1507 1506 1504 1502 1503 1506 1505 1502 1500 1498 1498 1498 1502 1508 1508 1505 1512 1516 1505 1499 1505 1501 1492 1491 1491 1489 1490 1489 1488 1489 1489 1489 1490 1489 1489 1489 1490 1490 1490 1489 1490 1491 1493 1495 1496 1498 1501 1504 1506 1505 1506 1508 1509 1510 1513 1514 1515 1516 1517 1517 1517 1517 1518 1518 1520 1521 1522 1523 1524 1525 1525 1526 1527 1528 1528 1528 1528 1529 1529 1530 1532
1514 1519 1513 1510 1510 1506 1504 1503 1501 1501 1501 1499 1499 1499 1498 1498 1499 1501 1503 1501 1500 1510 1511 1501 1498 1502 1498 1492 1490 1489 1488 1489 1488 1488 1488 1488 1489 1489 1488 1487 1487 1486 1486 1486 1486 1486 1486 1489 1490 1492 1494 1496 1500 1504 1505 1506 1506 1506 1507 1510 1511 1513 1514 1515 1516 1516 1516 1516 1517 1518 1519 1521 1521 1522 1523 1524 1525 1526 1527 1527 1527 1527 1528 1529 1530 1531
1516 1518 1512 1511 1512 1508 1504 1503 1500 1499 1500 1499 1497 1496 1496 1496 1496 1496 1497 1494 1495 1499 1498 1495 1497 1497 1492 1490 1488 1486 1487 1487 1486 1487 1487 1487 1487 1487 1486 1486 1485 1484 1484 1484 1485 1484 1484 1486 1488 1491 1493 1494 1496 1500 1504 1506 1506 1505 1506 1507 1509 1510 1511 1512 1513 1514 1514 1515 1516 1517 1518 1519 1520 1521 1522 1523 1523 1525 1526 1526 1526 1527 1527 1528 1529 1530
1519 1519 1514 1513 1516 1512 1504 1500 1498 1499 1501 1501 1499 1495 1494 1495 1495 1495 1494 1491 1492 1495 1494 1493 1497 1495 1490 1487 1487 1487 1487 1486 1485 1487 1487 1487 1488 1488 1487 1486 1485 1485 1485 1484 1485 1484 1484 1486 1488 1489 1491 1493 1494 1496 1500 1503 1505 1505 1505 1505 1507 1508 1508 1509 1511 1511 1512 1513 1514 1516 1517 1518 1519 1520 1521 1521 1522 1523 1524 1525 1525 1526 1527 1527 1528 1529
1517 1519 1515 1515 1522 1517 1506 1500 1499 1498 1501 1504 1502 1497 1494 1495 1495 1492 1491 1490 1491 1494 1495 1496 1498 1495 1488 1486 1488 1489 1487 1486 1486 1486 1487 1487 1489 1489 1489 1487 1486 1486 1485 1484 1485 1485 1484 1485 1487 1488 1489 1491 1493 1494 1496 1499 1502 1505 1504 1503 1504 1505 1505 1507 1508 1510 1510 1511 1513 1514 1515 1516 1517 1518 1519 1520 1521 1522 1523 1523 1524 1525 1526 1526 1527 1528
1513 1517 1516 1517 1522 1518 1507 1503 1500 1500 1508 1510 1501 1495 1493 1493 1493 1490 1488 1488 1489 1490 1494 1496 1494 1490 1487 1486 1487 1488 1487 1487 1487 1486 1487 1488 1489 1491 1490 1488 1488 1487 1486 1485 1485 1484 1485 1484 1485 1486 1488 1489 1491 1492 1493 1494 1497 1501 1503 1503 1503 1503 1504 1505 1506 1508 1509 1510 1511 1513 1514 1515 1516 1517 1518 1519 1520 1521 1522 1522 1523 1524 1525 1526 1527 1528
1512 1515 1515 1516 1520 1519 1509 1503 1503 1511 1518 1508 1493 1489 1492 1491 1493 1493 1490 1488 1488 1488 1489 1489 1486 1485 1485 1485 1486 1487 1487 1487 1487 1487 1488 1489 1490 1492 1491 1490 1490 1489 1487 1487 1485 1485 1485 1485 1485 1486 1487 1488 1489 1490 1491 1492 1493 1496 1500 1503 1503 1502 1502 1504 1505 1507 1508 1508 1510 1511 1512 1513 1514 1515 1516 1517 1519 1520 1520 1521 1522 1523 1524 1525 1526 1527
1510 1513 1514 1514 1518 1518 1510 1508 1517 1522 1511 1494 1485 1487 1488 1486 1488 1492 1491 1489 1488 1487 1485 1485 1485 1484 1484 1484 1484 1486 1486 1487 1488 1487 1487 1489 1491 1492 1492 1492 1491 1490 1489 1488 1487 1486 1485 1485 1486 1487 1487 1488 1488 1489 1490 1492 1492 1494 1497 1501 1502 1501 1501 1503 1504 1506 1507 1507 1508 1510 1511 1512 1513 1514 1515 1516 1517 1518 1519 1520 1520 1521 1522 1524 1525 1526
1508 1511 1515 1515 1516 1516 1513 1516 1523 1515 1495 1485 1485 1485 1484 1485 1487 1492 1495 1491 1488 1486 1485 1485 1485 1483 1483 1483 1483 1484 1486 1486 1487 1487 1487 1490 1491 1492 1492 1492 1491 1490 1489 1488 1487 1486 1486 1486 1486 1487 1488 1488 1488 1489 1489 1490 1491 1492 1494 1499 1501 1500 1501 1502 1503 1504 1505 1506 1507 1508 1509 1510 1511 1512 1513 1514 1515 1516 1517 1518 1518 1520 1521 1522 1523 1524
1505 1509 1514 1517 1516 1515 1516 1516 1511 1504 1497 1493 1490 1486 1486 1489 1490 1493 1497 1493 1486 1485 1485 1484 1484 1484 1484 1483 1483 1484 1485 1486 1487 1487 1488 1490 1492 1492 1492 1492 1492 1491 1489 1488 1487 1486 1486 1486 1486 1486 1487 1488 1488 1488 1489 1489 1491 1492 1494 1497 1499 1499 1500 1500 1501 1502 1503 1504 1505 1506 1507 1508 1510 1510 1511 1512 1513 1514 1515 1516 1516 1518 1519 1521 1522 1523
1503 1507 1511 1516 1515 1512 1515 1515 1511 1512 1509 1498 1489 1486 1488 1490 1489 1490 1496 1494 1485 1483 1484 1483 1484 1485 1485 1484 1484 1484 1486 1488 1490 1489 1490 1492 1493 1493 1492 1492 1491 1491 1490 1489 1487 1486 1486 1485 1485 1485 1486 1488 1488 1488 1488 1489 1490 1491 1493 1495 1497 1497 1498 1498 1499 1500 1501 1502 1503 1504 1505 1507 1508 1508 1509 1510 1511 1512 1513 1514 1515 1516 1517 1519 1520 1521
1502 1504 1506 1513 1515 1512 1514 1517 1516 1515 1507 1493 1486 1487 1489 1491 1490 1491 1500 1497 1484 1480 1483 1484 1485 1486 1486 1486 1486 1486 1488 1492 1493 1492 1493 1494 1494 1493 1493 1492 1491 1491 1490 1489 1488 1487 1487 1486 1485 1486 1487 1488 1489 1488 1488 1488 1489 1490 1492 1493 1495 1495 1496 1496 1497 1498 1498 1500 1501 1502 1504 1505 1506 1507 1508 1508 1509 1511 1511 1512 1513 1514 1516 1517 1519 1520
1504 1505 1507 1512 1514 1511 1512 1514 1510 1505 1497 1487 1484 1486 1487 1488 1490 1500 1510 1501 1484 1482 1486 1486 1487 1488 1487 1488 1489 1488 1490 1493 1494 1493 1493 1494 1494 1493 1493 1492 1492 1491 1490 1489 1488 1487 1487 1487 1486 1487 1487 1488 1488 1488 1489 1489 1489 1490 1490 1491 1493 1493 1493 1494 1495 1496 1498 1499 1500 1501 1502 1503 1504 1505 1506 1507 1508 1509 1510 1511 1512 1513 1514 1516 1517 1518
1506 1508 1510 1512 1511 1509 1510 1511 1506 1499 1491 1484 1483 1484 1485 1488 1496 1507 1509 1495 1485 1487 1489 1487 1489 1490 1489 1490 1491 1490 1491 1492 1493 1493 1493 1493 1493 1492 1492 1491 1491 1490 1489 1489 1488 1487 1488 1488 1487 1486 1487 1487 1487 1488 1489 1489 1489 1489 1490 1490 1490 1491 1491 1493 1494 1496 1498 1499 1500 1501 1501 1502 1503 1503 1504 1506 1506 1507 1509 1509 1510 1511 1513 1514 1516 1517
1507 1509 1508 1509 1510 1508 1505 1505 1505 1499 1489 1484 1484 1485 1486 1494 1502 1502 1495 1488 1488 1490 1489 1489 1491 1490 1490 1491 1491 1491 1492 1492 1492 1493 1492 1492 1492 1490 1490 1490 1489 1489 1488 1488 1487 1487 1487 1487 1486 1486 1486 1485 1485 1487 1488 1488 1488 1489 1489 1489 1489 1489 1490 1492 1493 1495 1496 1497 1499 1500 1500 1501 1501 1502 1503 1504 1505 1505 1507 1508 1509 1510 1511 1513 1514 1515
1505 1510 1509 1505 1505 1505 1503 1505 1508 1503 1491 1485 1486 1487 1488 1493 1495 1491 1487 1489 1491 1490 1490 1491 1490 1490 1491 1491 1490 1491 1492 1491 1492 1492 1491 1491 1490 1489 1489 1489 1488 1488 1487 1486 1486 1486 1485 1485 1485 1485 1485 1485 1485 1486 1487 1487 1487 1488 1489 1488 1488 1488 1489 1490 1492 1493 1493 1495 1496 1497 1498 1499 1499 1501 1502 1503 1503 1504 1505 1506 1507 1508 1510 1512 1513 1514
1499 1504 1507 1502 1500 1503 1506 1504 1500 1494 1488 1486 1489 1490 1489 1489 1489 1488 1489 1490 1489 1490 1491 1491 1490 1490 1490 1489 1489 1490 1490 1490 1491 1490 1490 1490 1489 1489 1488 1488 1487 1487 1486 1485 1485 1484 1484 1484 1484 1484 1484 1484 1484 1484 1485 1485 1485 1486 1487 1487 1487 1487 1487 1488 1489 1490 1491 1492 1493 1495 1497 1497 1498 1499 1501 1501 1502 1502 1503 1504 1505 1506 1508 1510 1511 1512
1496 1497 1501 1502 1499 1499 1499 1495 1489 1487 1487 1488 1489 1490 1490 1490 1489 1490 1490 1489 1489 1490 1490 1490 1490 1490 1490 1489 1489 1489 1488 1489 1489 1488 1489 1489 1488 1488 1487 1486 1485 1485 1484 1484 1483 1482 1482 1482 1481 1482 1482 1482 1483 1482 1483 1483 1483 1484 1484 1485 1485 1485 1485 1485 1486 1487 1488 1489 1490 1492 1495 1495 1496 1498 1499 1500 1500 1500 1501 1502 1502 1504 1505 1507 1509 1510
1493 1494 1497 1498 1496 1494 1492 1490 1488 1488 1488 1489 1489 1490 1490 1491 1490 1490 1489 1489 1490 1490 1490 1490 1490 1489 1488 1489 1488 1487 1487 1487 1487 1487 1487 1486 1486 1486 1485 1484 1483 1482 1482 1481 1481 1480 1480 1479 1479 1479 1480 1480 1481 1480 1480 1481 1482 1481 1482 1483 1483 1483 1483 1483 1484 1484 1485 1486 1487 1489 1491 1492 1493 1495 1497 1499 1499 1499 1499 1499 1500 1501 1503 1505 1506 1507
1491 1493 1494 1493 1494 1496 1494 1490 1488 1487 1488 1488 1489 1489 1489 1490 1490 1489 1489 1488 1488 1489 1489 1488 1488 1487 1487 1486 1485 1485 1485 1485 1484 1484 1484 1483 1483 1483 1482 1481 1480 1480 1479 1479 1478 1478 1478 1477 1477 1477 1477 1477 1478 1478 1478 1479 1479 1479 1480 1481 1481 1482 1482 1482 1482 1482 1483 1484 1485 1486 1488 1489 1490 1492 1494 1496 1497 1497 1498 1498 1498 1499 1500 1501 1503 1505
1493 1494 1494 1493 1493 1494 1492 1488 1486 1486 1486 1486 1487 1487 1487 1488 1488 1488 1488 1487 1487 1487 1487 1486 1486 1486 1485 1485 1484 1484 1483 1482 1482 1482 1481 1481 1481 1480 1479 1479 1477 1477 1476 1476 1475 1475 1475 1475 1474 1474 1474 1474 1474 1475 1475 1475 1475 1476 1477 1478 1479 1480 1481 1481 1480 1480 1481 1482 1483 1484 1485 1486 1487 1489 1490 1492 1494 1495 1495 1495 1495 1496 1496 1498 1499 1501
1495 1494 1493 1492 1491 1490 1489 1487 1486 1485 1484 1484 1485 1486 1486 1487 1486 1486 1486 1486 1485 1485 1484 1484 1484 1483 1483 1483 1483 1482 1481 1480 1479 1478 1478 1478 1477 1477 1477 1476 1474 1474 1473 1472 1472 1472 1472 1472 1472 1471 1471 1471 1471 1472 1472 1472 1472 1473 1473 1474 1475 1476 1477 1479 1478 1478 1478 1479 1480 1481 1483 1484 1485 1486 1487 1489 1490 1492 1492 1491 1491 1492 1493 1495 1496 1497
1496 1493 1491 1493 1493 1492 1489 1487 1487 1487 1486 1485 1485 1486 1486 1486 1486 1485 1485 1484 1483 1482 1482 1481 1480 1481 1481 1481 1480 1479 1478 1477 1476 1476 1475 1474 1474 1474 1474 1473 1472 1471 1470 1470 1470 1469 1469 1469 1468 1468 1468 1468 1469 1469 1469 1469 1469 1469 1470 1471 1472 1472 1473 1475 1476 1476 1476 1476 1477 1478 1479 1481 1482 1483 1484 1486 1487 1489 1489 1489 1490 1490 1491 1492 1494 1495
1494 1493 1492 1494 1493 1491 1489 1488 1488 1487 1485 1484 1485 1486 1485 1485 1485 1484 1483 1483 1482 1481 1480 1479 1478 1478 1478 1478 1478 1477 1476 1475 1474 1473 1472 1471 1471 1471 1470 1470 1469 1468 1468 1467 1467 1466 1466 1466 1465 1465 1465 1465 1466 1466 1466 1466 1467 1467 1467 1467 1468 1469 1470 1470 1471 1473 1473 1473 1474 1474 1475 1477 1478 1479 1481 1483 1484 1485 1487 1487 1488 1489 1490 1490 1491 1493